GW4812 Weather Reports


Display with metric or nautical units.
time (UTC)temp
F
wind
direction
speed
MPH
gust
MPH
rain 1hr
in
rain 24hr
in
rain mn
in
humidity
%
barometer
mb
20260504230553 70 210 1.0 2.0 0.00 0.00 0.00 40 1009.0
20260504230054 70 197 0.0 1.0 0.00 0.00 0.00 40 1009.0
20260504225552 70 237 1.0 3.0 0.00 0.00 0.00 39 1009.0
20260504225057 70 223 2.0 4.0 0.00 0.00 0.00 39 1009.0
20260504224552 70 208 3.0 7.0 0.00 0.00 0.00 38 1009.0
20260504224052 70 193 1.0 2.0 0.00 0.00 0.00 39 1009.0
20260504223553 71 235 1.0 2.0 0.00 0.00 0.00 38 1009.0
20260504223053 71 217 2.0 3.0 0.00 0.00 0.00 38 1009.0
20260504222555 71 222 3.0 4.0 0.00 0.00 0.00 37 1009.0
20260504222054 71 308 1.0 2.0 0.00 0.00 0.00 38 1009.0
20260504221552 72 209 2.0 3.0 0.00 0.00 0.00 37 1009.0
20260504221053 72 218 1.0 3.0 0.00 0.00 0.00 37 1009.0
20260504220553 72 175 2.0 4.0 0.00 0.00 0.00 36 1009.0
20260504220054 73 216 2.0 2.0 0.00 0.00 0.00 36 1009.0
20260504215554 73 203 3.0 5.0 0.00 0.00 0.00 35 1009.0
20260504215054 73 320 1.0 2.0 0.00 0.00 0.00 36 1009.0
20260504214553 73 301 1.0 2.0 0.00 0.00 0.00 35 1009.0
20260504214053 73 290 1.0 2.0 0.00 0.00 0.00 36 1009.0
20260504213555 73 268 2.0 3.0 0.00 0.00 0.00 37 1009.0
20260504213055 73 224 2.0 3.0 0.00 0.00 0.00 36 1009.0
20260504212555 73 277 2.0 3.0 0.00 0.00 0.00 36 1009.0
20260504212056 73 185 2.0 3.0 0.00 0.00 0.00 35 1009.0
20260504211553 73 272 2.0 4.0 0.00 0.00 0.00 36 1009.0
20260504211056 73 204 1.0 2.0 0.00 0.00 0.00 36 1009.0
20260504210554 74 332 1.0 2.0 0.00 0.00 0.00 35 1010.0
20260504205554 74 46 0.0 2.0 0.00 0.00 0.00 36 1009.0
20260504205052 73 272 2.0 5.0 0.00 0.00 0.00 35 1009.0
20260504204552 73 314 1.0 2.0 0.00 0.00 0.00 36 1009.0
20260504204053 73 222 2.0 4.0 0.00 0.00 0.00 36 1009.0
20260504203553 72 293 2.0 5.0 0.00 0.00 0.00 36 1009.0
20260504203053 73 220 3.0 7.0 0.00 0.00 0.00 35 1009.0
20260504202554 73 208 2.0 4.0 0.00 0.00 0.00 35 1009.0
20260504202053 72 193 1.0 2.0 0.00 0.00 0.00 35 1009.0
20260504201553 72 305 2.0 4.0 0.00 0.00 0.00 37 1010.0
20260504201054 73 197 3.0 11.0 0.00 0.00 0.00 35 1009.0
20260504200554 73 176 2.0 3.0 0.00 0.00 0.00 35 1010.0
20260504200055 73 246 2.0 4.0 0.00 0.00 0.00 34 1010.0
20260504195555 73 287 2.0 3.0 0.00 0.00 0.00 36 1010.0
20260504195054 72 235 2.0 3.0 0.00 0.00 0.00 36 1010.0
20260504194555 72 325 2.0 3.0 0.00 0.00 0.00 36 1010.0
20260504194053 72 343 1.0 3.0 0.00 0.00 0.00 34 1010.0
20260504193554 72 211 2.0 4.0 0.00 0.00 0.00 36 1010.0
20260504193054 71 323 2.0 3.0 0.00 0.00 0.00 36 1010.0
20260504192553 71 247 2.0 3.0 0.00 0.00 0.00 36 1010.0
20260504192052 71 202 1.0 2.0 0.00 0.00 0.00 37 1010.0
20260504191554 71 194 3.0 7.0 0.00 0.00 0.00 35 1010.0
20260504191055 71 228 2.0 3.0 0.00 0.00 0.00 36 1010.0
20260504190553 71 191 4.0 7.0 0.00 0.00 0.00 37 1010.0
20260504190053 71 194 3.0 5.0 0.00 0.00 0.00 36 1010.0
20260504185556 72 287 2.0 4.0 0.00 0.00 0.00 37 1010.0
20260504185052 71 235 1.0 2.0 0.00 0.00 0.00 38 1010.0
20260504184555 71 214 3.0 4.0 0.00 0.00 0.00 37 1010.0
20260504184055 71 258 1.0 2.0 0.00 0.00 0.00 37 1010.0
20260504183558 71 229 3.0 5.0 0.00 0.00 0.00 35 1010.0
20260504183054 71 204 2.0 4.0 0.00 0.00 0.00 35 1010.0
20260504182555 70 199 1.0 2.0 0.00 0.00 0.00 36 1010.0
20260504182100 70 238 3.0 7.0 0.00 0.00 0.00 37 1011.0
20260504181554 70 244 2.0 4.0 0.00 0.00 0.00 38 1011.0
20260504181055 70 246 2.0 4.0 0.00 0.00 0.00 37 1011.0
20260504180556 70 334 2.0 3.0 0.00 0.00 0.00 37 1011.0
20260504180055 70 325 2.0 3.0 0.00 0.00 0.00 38 1011.0
20260504175555 69 142 2.0 6.0 0.00 0.00 0.00 38 1011.0
20260504175054 69 223 2.0 5.0 0.00 0.00 0.00 37 1011.0
20260504174555 69 199 2.0 3.0 0.00 0.00 0.00 38 1011.0
20260504174055 69 206 2.0 4.0 0.00 0.00 0.00 38 1011.0
20260504173554 69 249 2.0 3.0 0.00 0.00 0.00 38 1011.0
20260504173055 69 180 4.0 5.0 0.00 0.00 0.00 37 1011.0
20260504172558 69 153 3.0 5.0 0.00 0.00 0.00 39 1011.0
20260504172055 68 180 2.0 3.0 0.00 0.00 0.00 39 1011.0
20260504171554 68 202 3.0 4.0 0.00 0.00 0.00 39 1011.0
20260504171054 68 347 2.0 4.0 0.00 0.00 0.00 40 1011.0
20260504170554 67 329 1.0 3.0 0.00 0.00 0.00 40 1011.0
20260504151055 65 338 3.0 4.0 0.00 0.00 0.00 41 1013.0
20260504150555 65 223 2.0 4.0 0.00 0.00 0.00 40 1013.0
20260504141055 61 246 2.0 4.0 0.00 0.00 0.00 47 1013.0
20260504140557 61 188 3.0 6.0 0.00 0.00 0.00 48 1013.0
20260504130555 56 217 1.0 2.0 0.00 0.00 0.00 53 1014.0
20260504110553 40 237 2.0 2.0 0.00 0.00 0.00 78 1014.0
20260504100553 39 154 0.0 0.0 0.00 0.00 0.00 83 1014.0
20260504081553 41 271 2.0 3.0 0.00 0.00 0.00 80 1014.0
20260504081052 41 260 2.0 2.0 0.00 0.00 0.00 80 1014.0
20260504080552 41 256 1.0 2.0 0.00 0.00 0.00 80 1014.0
20260504050552 41 287 1.0 2.0 0.00 0.00 0.00 79 1013.0
20260504045552 41 241 1.0 1.0 0.00 0.00 0.00 80 1013.0
20260504045053 41 273 1.0 2.0 0.00 0.00 0.00 79 1013.0
20260504044553 41 235 0.0 1.0 0.00 0.00 0.00 79 1013.0
20260504044052 41 271 1.0 1.0 0.00 0.00 0.00 79 1013.0
20260504043553 41 175 0.0 1.0 0.00 0.00 0.00 79 1013.0
20260504043052 41 213 0.0 0.0 0.00 0.00 0.00 78 1013.0
20260504042553 42 234 0.0 1.0 0.00 0.00 0.00 78 1013.0
20260504042052 42 234 1.0 1.0 0.00 0.00 0.00 78 1013.0
20260504041554 42 274 2.0 2.0 0.00 0.00 0.00 78 1013.0
20260504041053 42 268 0.0 1.0 0.00 0.00 0.00 77 1013.0
20260504040553 42 231 1.0 1.0 0.00 0.00 0.00 76 1013.0
20260504040052 42 196 1.0 1.0 0.00 0.00 0.00 76 1013.0
20260504035552 42 238 1.0 1.0 0.00 0.00 0.00 76 1013.0
20260504035054 42 264 1.0 2.0 0.00 0.00 0.00 76 1013.0
20260504034552 42 256 1.0 2.0 0.00 0.00 0.00 76 1013.0
20260504034053 42 234 1.0 1.0 0.00 0.00 0.00 76 1013.0
20260504033552 42 242 1.0 2.0 0.00 0.00 0.00 75 1013.0
20260504033053 42 246 2.0 2.0 0.00 0.00 0.00 75 1013.0
20260504032552 43 280 0.0 0.0 0.00 0.00 0.00 75 1013.0
20260504032053 43 220 1.0 2.0 0.00 0.00 0.00 75 1013.0
20260504031553 43 265 2.0 2.0 0.00 0.00 0.00 74 1013.0
20260504031053 43 269 1.0 1.0 0.00 0.00 0.00 74 1013.0
20260504030552 43 241 1.0 2.0 0.00 0.00 0.00 74 1013.0
20260504030053 43 249 1.0 2.0 0.00 0.00 0.00 73 1013.0
20260504025553 43 224 0.0 1.0 0.00 0.00 0.00 73 1013.0
20260504025053 43 246 1.0 2.0 0.00 0.00 0.00 72 1013.0
20260504024554 44 259 1.0 2.0 0.00 0.00 0.00 72 1013.0
20260504024053 44 260 1.0 2.0 0.00 0.00 0.00 71 1013.0
20260504023552 44 234 0.0 1.0 0.00 0.00 0.00 70 1013.0
20260504023053 44 240 1.0 2.0 0.00 0.00 0.00 70 1013.0
20260504022553 44 221 1.0 2.0 0.00 0.00 0.00 70 1013.0
20260504022052 44 266 1.0 2.0 0.00 0.00 0.00 70 1013.0
20260504021552 45 256 1.0 2.0 0.00 0.00 0.00 69 1013.0
20260504021052 45 261 2.0 2.0 0.00 0.00 0.00 69 1013.0
20260504020553 45 263 2.0 2.0 0.00 0.00 0.00 69 1013.0
20260504020052 45 252 1.0 1.0 0.00 0.00 0.00 68 1013.0
20260504015552 45 258 1.0 2.0 0.00 0.00 0.00 68 1013.0
20260504015052 46 249 1.0 1.0 0.00 0.00 0.00 67 1013.0
20260504014552 46 262 1.0 1.0 0.00 0.00 0.00 67 1013.0
20260504014052 46 241 0.0 1.0 0.00 0.00 0.00 66 1013.0
20260504013552 46 276 1.0 2.0 0.00 0.00 0.00 66 1013.0
20260504013052 47 265 1.0 2.0 0.00 0.00 0.00 65 1012.0
20260504012553 47 254 1.0 2.0 0.00 0.00 0.00 64 1012.0
20260504012055 47 270 1.0 2.0 0.00 0.00 0.00 63 1012.0
20260504011553 47 262 1.0 2.0 0.00 0.00 0.00 62 1012.0
20260504011052 48 253 1.0 1.0 0.00 0.00 0.00 62 1012.0
20260504010553 48 240 1.0 2.0 0.00 0.00 0.00 61 1012.0
20260504010052 49 171 0.0 1.0 0.00 0.00 0.00 60 1012.0
20260504005552 49 259 1.0 2.0 0.00 0.00 0.00 58 1012.0
20260504005053 49 252 1.0 2.0 0.00 0.00 0.00 55 1012.0
20260504004553 50 244 1.0 1.0 0.00 0.00 0.00 55 1012.0
20260504004052 51 269 0.0 1.0 0.00 0.00 0.00 55 1012.0
20260504003553 51 257 1.0 2.0 0.00 0.00 0.00 54 1012.0
20260504003053 52 261 1.0 2.0 0.00 0.00 0.00 52 1012.0
20260504002552 53 255 1.0 2.0 0.00 0.00 0.00 48 1012.0
20260504002053 53 242 0.0 0.0 0.00 0.00 0.00 45 1012.0
20260504001552 54 183 0.0 1.0 0.00 0.00 0.00 44 1012.0
20260504001053 55 282 0.0 1.0 0.00 0.00 0.00 43 1011.0
20260504000552 55 0 0.0 0.0 0.00 0.00 0.00 40 1011.0
20260504000053 56 266 0.0 1.0 0.00 0.00 0.00 39 1011.0
20260503235552 56 0 0.0 0.0 0.00 0.00 0.00 37 1011.0
20260503235052 57 0 0.0 0.0 0.00 0.00 0.00 37 1011.0
20260503234553 57 242 2.0 4.0 0.00 0.00 0.00 35 1011.0
20260503234052 57 196 1.0 3.0 0.00 0.00 0.00 36 1011.0
20260503233553 58 263 0.0 2.0 0.00 0.00 0.00 37 1011.0
20260503233053 58 220 0.0 2.0 0.00 0.00 0.00 35 1011.0
20260503232553 58 103 0.0 1.0 0.00 0.00 0.00 34 1011.0
20260503232052 58 200 1.0 2.0 0.00 0.00 0.00 35 1011.0
20260503231552 58 0 0.0 0.0 0.00 0.00 0.00 33 1011.0
20260503231052 58 85 0.0 1.0 0.00 0.00 0.00 34 1011.0